Location: Boursonne
(49.2024°N, 3.0468°E)
Time: 21:10:39
(UTC+00:00)

ATLAS CENTAUR R/B - Pass Details

Date: 03 March 2021
Orbit: 475 x 670 km, 64.7° (Epoch: 30 March)

Event Time Altitude Azimuth Distance (km) Brightness Sun altitude
Rises 19:57:13 0° 237° (WSW) 2,519 5.2 -23.8°
Reaches altitude 10° 19:59:25 10° 245° (WSW) 1,643 4.3 -24.2°
Maximum altitude 20:02:52 41° 317° (NW) 714 2.2 -24.7°
Enters shadow 20:03:16 39° 335° (NNW) 734 2.2 -24.8°
